Regional Weather Roundup
Issued by NWS

Home | Current Version | Previous Version | Graphics & Text | Print | Product List | Glossary On
Versions: 1 2 3 4 5 6 7 8 9 10 11 12 13 14 15 16 17 18 19 20 21 22 23 24 25 26 27 28 29 30 31 32 33 34 35 36 37 38 39 40 41 42 43 44 45 46 47 48 49 50
000
ASUS43 KLMK 240610
RWRKY
KENTUCKY REGIONAL WEATHER ROUNDUP
NATIONAL WEATHER SERVICE LOUISVILLE KY
200 AM EDT SUN JUL 24 2016

NOTE "FAIR" INDICATES FEW OR NO CLOUDS BELOW 12,000 FEET
WITH NO SIGNIFICANT WEATHER AND/OR OBSTRUCTIONS TO VISIBILITY.

KYZ001>023-026-027-061>063-070>075-240700-
WESTERN AND SOUTH CENTRAL KENTUCKY

CITY           SKY/WX    TMP DP  RH WIND       PRES   REMARKS
PADUCAH        MOCLDY    78  75  90 SW5       29.94F
HENDERSON      CLEAR     79  73  83 CALM      29.94S
OWENSBORO      CLEAR     80  79  97 S3        29.96F
HOPKINSVILLE   CLEAR     77  76  97 SE3       29.97S
BOWLING GREEN  CLEAR     80  75  84 SE6       29.99F
GLASGOW        CLEAR     76  75  96 S3        30.00S
$$

KYZ024-025-028>034-038-045-046-053-240700-
NORTH CENTRAL KENTUCKY

CITY           SKY/WX    TMP DP  RH WIND       PRES   REMARKS
LOUISVILLE/SDF CLOUDY    84  74  71 CALM      29.97S HX  91
LOUISVILLE/LOU MOCLDY    83  74  74 CALM      29.98S
FORT KNOX      CLEAR     76  75  96 SE2       29.98S
$$

KYZ035>037-039>044-047>052-055>060-089>105-240700-
NORTHEAST KENTUCKY

CITY           SKY/WX    TMP DP  RH WIND       PRES   REMARKS
LEXINGTON      CLEAR     78  73  84 CALM      30.01F
COVINGTON      PTCLDY    78  73  84 CALM      30.00S
FRANKFORT      CLEAR     77  73  87 CALM      29.99F
$$

KYZ054-064>069-076>088-106>120-240700-
SOUTHEAST KENTUCKY

CITY           SKY/WX    TMP DP  RH WIND       PRES   REMARKS
JACKSON        CLEAR     77  71  82 SE3       30.05F
LONDON         CLEAR     75  70  84 CALM      30.05S
SOMERSET       CLEAR     73  72  94 CALM      30.04F
MIDDLESBORO    PTCLDY    72  72  99 CALM      30.07S
MONTICELLO     CLEAR    N/A N/A N/A NW9       30.05F
$$





USA.gov is the U.S. government's official web portal to all federal, state and local government web resources and services.